Showing default

KUIPER-00431, 68936

Orbit data source: Space-Track

KUIPER-00431, 68936 is a payload satellite owned by Kuiper Systems (US) in LEO that was launched on Thu, 30 Apr 2026 UTC via an ARIANE 64 launch vehicle from the French Guiana (FRGUI). Payload-class satellites include a variety of spacecraft equipped with specific instruments for various scientific and technological missions. These include communications satellites like Starlink; space stations such as the ISS; scientific satellites like the Hubble; Earth observation satellites from companies like Planet Labs, Umbra, and HawkEye 360; GPS; miniature CubeSats for education and research; and military/defense satellites.

Loading next visibility...
Identifier
68936, 2026-098T
Orbit
LEO
Country
Flag of USUS
Related business
Manufacturer
Kuiper Systems
Mission
Operational spacecraft
Bus & Motor
KUIPER, Unknown motor
Mass
~490 kg wet, ~490 kg dry
Launch date (UTC)
2026-04-30 (2 months ago)
Launch vehicle
ARIANE 64
Launch site
French Guiana (FRGUI)
Object type
Payload
Rocket body
Debris
Shape & HBR
Unknown shape, 3.4 m
Radar Cross Section
Large (>1 m²)

Expand to show TLE details & history
Last TLE update: 14 hours ago

TLE from 14 hours ago
0 KUIPER-00431
1 68936U 26098T   26171.39294323  .00025385  00000-0  93033-3 0  9993
2 68936  51.8762  54.1788 0026875 160.3710 199.8314 15.27508597  7812
Epoch: 2026-06-20T09:25Z
TLE epoch observation values (Epoch: 2026-06-20T09:25:50.295Z)
Latitude
0.00006°
Longitude
4.11107°
Altitude
501.374 km
Speed
7.605 km/s
True Right ascension
03h 36m 42s
True Declination
0° 00' 00"
Sunlit
Object was in daylight at epoch
Visualization orbit readout
Latitude
Unknown
Longitude
Unknown
Altitude
Unknown
Speed
Unknown
Apparent Right ascension
Unknown
Apparent Declination
Unknown
Sunlit
N/A
Visualization observer readout
Local Sidereal Time
10:19:38
Azimuth
Unknown
Elevation
Unknown
Doppler factor
Unknown
Orbital elements
Apogee altitude
502.169 km
Perigee altitude
465.286 km
Semi-major axis
6,861.864 km
Eccentricity
0.00269
Inclination
51.8762°
RAAN
54.1788°
Arg. of periapsis
160.371°
True anomaly
199.72725°
Mean anomaly
199.8314°
Eccentric anomaly
199.77929°
Mean motion
3.81839 °/min
Orbital period
94.28 mins
BSTAR
0.00093033
Loading maneuver chart data...
Computing Atmospheric mass density...
Loading historical data...
Loading historical data...
Loading historical data...
Loading historical data...
Loading historical data...
Loading historical data...
Loading historical data...

Documentation

Showing up to 5 results
|